[[{"header":{"parameterUnit":"m.s-1","parameterCategory":1,"la1":30.2992,"la2":30.254,"lo1":-89.0895,"lo2":-89.0443,"dy":0.0025,"dx":0.0025,"nx":19,"ny":19,"refTime":"2026-03-25T21:00:00:Z","depth":0,"parameterNumber":2,"parameterNumberName":"U-component_of_WINDS"},"data":[0,0,0,-2.8129,-2.8129,-2.8116,-2.8116,-2.8136,-2.8136,0,0,0,0,0,0,0,0,0,0,0,-2.8153,-2.8154,-2.8129,-2.8129,-2.8116,-2.8116,-2.8136,-2.8136,0,0,0,0,0,0,0,0,0,0,0,-2.8153,-2.8154,-2.8155,-2.8129,-2.8116,-2.8116,-2.8135,-2.8133,0,0,0,0,0,0,0,0,0,0,-2.8139,-2.8181,-2.8154,-2.8155,-2.8129,-2.8116,-2.8116,-2.8132,-2.8133,-2.8157,0,-2.8182,0,-2.816,-2.814,-2.814,0,0,0,-2.8114,-2.8181,-2.8158,-2.8155,-2.8129,-2.8116,-2.8118,-2.8132,-2.8133,-2.8158,-2.8182,-2.8182,-2.816,-2.814,-2.814,-2.8324,-2.8326,0,0,-2.8115,-2.8162,-2.8158,-2.816,-2.8163,-2.8118,-2.8118,-2.8132,-2.8162,-2.8182,-2.8182,-2.816,-2.814,-2.8141,-2.8323,-2.8325,0,0,0,-2.8127,-2.8164,-2.814,-2.816,-2.8155,-2.8118,-2.8117,-2.8161,-2.8149,-2.8181,-2.816,-2.8141,-2.8141,-2.8321,-2.8324,-2.8446,0,0,0,-2.8127,-2.817,-2.8141,-2.817,-2.8156,-2.8158,-2.8147,-2.8148,-2.8148,-2.816,-2.8141,-2.8142,-2.8319,-2.8322,-2.8439,-2.8496,0,0,0,-2.8147,-2.8172,-2.8177,-2.8173,-2.8169,-2.8156,-2.8145,-2.8147,-2.8137,-2.814,-2.8142,-2.8318,-2.8322,-2.8433,-2.8486,-2.8558,0,0,0,-2.8183,-2.8287,-2.818,-2.8289,-2.8169,-2.8232,-2.8144,-2.8189,-2.8207,-2.8141,-2.8319,-2.8323,-2.843,-2.8479,-2.8552,-2.8628,-2.8664,0,0,-2.8341,-2.8308,-2.8368,-2.8272,-2.8366,-2.823,-2.8342,-2.8314,-2.8272,-2.831,-2.8314,-2.8441,-2.8485,-2.8557,-2.8851,-2.888,0,0,0,-2.8435,-2.8478,-2.8493,-2.8511,-2.8492,-2.848,-2.8429,-2.8419,-2.8448,-2.8301,-2.8486,-2.851,-2.8551,-2.8585,-2.861,-2.8641,-2.8341,-2.8341,-2.834,-2.8727,-2.8666,-2.8762,-2.87,-2.8719,-2.8666,-2.8676,-2.8653,-2.8587,-2.8632,-2.8643,-2.8828,-2.887,-2.8888,-2.8922,-2.8678,-2.8679,-2.8679,-2.868,-2.8953,-2.9005,-2.8915,-2.8975,-2.8911,-2.8961,-2.8915,-2.8867,-2.8905,-2.8815,-2.8848,-2.8755,-2.8922,-2.8949,-2.8688,-2.8687,-2.8686,-2.8685,-2.8684,-2.9137,-2.9151,-2.9137,-2.9157,-2.918,-2.9114,-2.9155,-2.9096,-2.904,-2.9073,-2.9078,-2.9075,-2.9066,-2.9079,-2.908,-2.9081,-2.9081,-2.9082,-2.9082,-2.9334,-2.9313,-2.9354,-2.9342,-2.9346,-2.9344,-2.9293,-2.9296,-2.9284,-2.9238,-2.9237,-2.9168,-2.895,-2.8896,-2.9092,-2.909,-2.9089,-2.9088,-2.9087,-2.9585,-2.9518,-2.9582,-2.9586,-2.9568,-2.9595,-2.9519,-2.953,-2.9524,-2.9547,-2.947,-2.9319,-2.9281,-2.9261,-2.9216,-2.9482,-2.9482,-2.9482,-2.9482,-2.974,-2.9715,-2.9766,-2.9777,-2.9781,-2.9718,-2.9794,-2.9756,-2.9706,-2.9699,-2.9652,-2.9588,-2.957,-2.9542,-2.9516,-2.9473,-2.98,-2.98,-2.98,-2.989,-2.9863,-2.9938,-2.9887,-2.9868,-2.9855,-2.9924,-2.9941,-2.9871,-2.9812,-2.9692,-2.9679,-2.9574,-2.9543,-2.9481,-2.9441,-2.9361,0,0]},{"header":{"parameterUnit":"m.s-1","parameterCategory":1,"la1":30.2992,"la2":30.254,"lo1":-89.0895,"lo2":-89.0443,"dy":0.0025,"dx":0.0025,"nx":19,"ny":19,"refTime":"2026-03-25T21:00:00:Z","depth":0,"parameterNumber":3,"parameterNumberName":"V-component_of_WINDS"},"data":[0,0,0,1.2272,1.227,1.2146,1.2145,1.1981,1.198,0,0,0,0,0,0,0,0,0,0,0,1.2308,1.2307,1.2272,1.2269,1.2146,1.2145,1.1982,1.198,0,0,0,0,0,0,0,0,0,0,0,1.2309,1.2307,1.2306,1.2269,1.2146,1.2145,1.1982,1.2077,0,0,0,0,0,0,0,0,0,0,1.2197,1.2231,1.2308,1.2306,1.2268,1.2146,1.2145,1.2081,1.2071,1.2036,0,1.2008,0,1.1992,1.1969,1.1968,0,0,0,1.2268,1.2239,1.2207,1.2306,1.2267,1.2146,1.2201,1.2075,1.2063,1.2022,1.2006,1.2,1.1989,1.1968,1.1967,1.178,1.1779,0,0,1.2275,1.2284,1.2216,1.22,1.2222,1.2205,1.2197,1.2068,1.2049,1.2005,1.1996,1.1986,1.1967,1.1966,1.1781,1.178,0,0,0,1.2295,1.2289,1.226,1.2206,1.2185,1.2202,1.2193,1.2055,1.2045,1.1994,1.1985,1.1966,1.1964,1.1781,1.178,1.1748,0,0,0,1.23,1.2301,1.2263,1.2267,1.2187,1.2119,1.2182,1.2054,1.2039,1.1985,1.1966,1.1962,1.1782,1.1781,1.1751,1.173,0,0,0,1.2316,1.2303,1.2285,1.2268,1.2216,1.2121,1.2103,1.2051,1.2033,1.1968,1.1962,1.1783,1.1781,1.1754,1.1734,1.1684,0,0,0,1.2335,1.2256,1.2285,1.2193,1.2217,1.2104,1.2104,1.2018,1.1959,1.1965,1.1782,1.178,1.1755,1.1737,1.1687,1.1642,1.1624,0,0,1.224,1.2245,1.219,1.2212,1.2097,1.2122,1.2,1.1935,1.1919,1.1826,1.1822,1.175,1.1734,1.1684,1.1529,1.1515,0,0,0,1.2162,1.2123,1.209,1.2037,1.1989,1.1945,1.1899,1.1875,1.1797,1.1875,1.1719,1.1709,1.1679,1.1657,1.1646,1.1619,1.1771,1.1771,1.1772,1.2036,1.2024,1.1933,1.1906,1.1855,1.1811,1.1766,1.1727,1.1726,1.169,1.1661,1.1569,1.1543,1.1535,1.1507,1.1638,1.1638,1.1638,1.1638,1.1893,1.1834,1.1842,1.1756,1.1743,1.1669,1.1624,1.1628,1.1555,1.1588,1.1561,1.1596,1.152,1.1495,1.1635,1.1636,1.1636,1.1637,1.1637,1.1807,1.1777,1.1754,1.1678,1.162,1.1596,1.1529,1.1519,1.1509,1.1483,1.1451,1.1452,1.1449,1.1469,1.1469,1.1469,1.1468,1.1468,1.1468,1.1725,1.1701,1.1646,1.1593,1.1559,1.1513,1.1472,1.1437,1.1395,1.1393,1.1393,1.1396,1.1517,1.1546,1.1463,1.1464,1.1464,1.1465,1.1465,1.158,1.1613,1.1529,1.1496,1.1433,1.1377,1.1369,1.13,1.127,1.1237,1.1248,1.134,1.1342,1.1351,1.1375,1.1252,1.1252,1.1252,1.1252,1.1506,1.1509,1.1423,1.137,1.1318,1.1304,1.1208,1.1176,1.1147,1.1128,1.1145,1.1177,1.1187,1.1183,1.1196,1.1218,1.1058,1.1058,1.1057,1.1415,1.1414,1.1334,1.1311,1.1263,1.1221,1.1131,1.1069,1.1043,1.1049,1.1112,1.112,1.1172,1.119,1.1193,1.1213,1.1253,0,0]}]]